Overview Statistics Trail Chart Weather Telemetry Raw packets
 

This is the latest recevied weather packets stored in our database for station/object N0BII-7. If no packets are shown the sender has not sent any weather packets the latest 10 day(s).

<< 2 3 4 5 6 >>
Time Temp. Humidity Pressure Rain* Wind** Luminosity Snow
1787644902 27.22° C 63% 847.1 hPa - - - -
1787644602 27.78° C 64% 847.1 hPa - - - -
1787644302 28.89° C 63% 847 hPa - - - -
1787569035 25° C 66% 847.2 hPa - - - -
1787568735 25° C 66% 847.1 hPa - - - -
1787568435 25° C 66% 846.9 hPa - - - -
1787568135 25° C 66% 846.9 hPa - - - -
1787567835 25° C 66% 847 hPa - - - -
1787567535 25.56° C 66% 846.9 hPa - - - -
1787567235 25° C 67% 846.7 hPa - - - -
1787566935 25° C 67% 846.9 hPa - - - -
1787566635 25° C 67% 847 hPa - - - -
1787566421 25° C 67% 847 hPa - - - -
1787566035 25° C 67% 847 hPa - - - -
1787565735 25° C 68% 847.2 hPa - - - -
1787565435 25° C 68% 846.9 hPa - - - -
1787565135 25° C 68% 847 hPa - - - -
1787564835 25° C 69% 846.9 hPa - - - -
1787564535 25° C 69% 846.7 hPa - - - -
1787564235 25° C 69% 846.9 hPa - - - -
1787563935 25° C 69% 846.8 hPa - - - -
1787563637 25° C 70% 846.6 hPa - - - -
1787563335 25° C 70% 846.3 hPa - - - -
1787563036 25° C 70% 846.4 hPa - - - -
1787562735 25° C 71% 846.5 hPa - - - -

* Rain since midnight (hover to see other rain measurements)
** Current wind speed in m/s (hover to see current wind gust speed)